Ontario Intl Information

FAA: ONT - ICAO: KONT

Ontario Intl (Airport) Location

State California
County San Bernardino
City Ontario
Ontario Intl (Airport) is 2 miles east of Ontario, CA.
Latitude 34-03-21.6000N
Longitude 117-36-04.3000W
Elevation 944ft

Ontario Intl METARs

METAR KONT 121453Z 00000KT 10SM FEW200 FEW250 24/11 A2996 RMK AO2 SLP129 T02440111 53010
Altimeter 29.96"
Temperature 24.4°C (75.9°F)
Wind 0° at 0KT
Clouds few at 20,000ft few at 25,000ft
Visibility 10.0mi
Time observed: 2022-08-12T14:53:00Z

Ontario Intl (Airport) Details

Status Operational
Activation April 1940
Ownership Public
Usage Public
Chart LOS ANGELES
ATC on-site Yes
Beacon schedule sunset-sunrise
Beacon color clear green

Ontario Intl (Airport) Contacts

Owner ONTARIO INTL AIRPORT AUTHORITY
Owner address 1923 EAST AVION STREET, ONTARIO, CA 91761
Owner phone (909) 544-5300
Manager TRACEY RAYBON
Manager address P.O. BOX 342, OCOTILLO, CA 92259
Manager phone 760-996-3824

Ontario Intl Radio Frequencies

Ontario Intl (Airport) Radio Frequencies

UNICOM N/A
Common traffic advisory frequency (CTAF) N/A